This is the latest recevied weather packets stored in our database for station/object EB2BAG-11. If no packets are shown the sender has not sent any weather packets the latest 10 day(s).
| Time | Temp. | Humidity | Pressure | Rain* | Wind** | Luminosity | Snow |
|---|---|---|---|---|---|---|---|
| 1788146723 | 68° F | 90% | 767.1 mmHg | - | - | - | - |
| 1788145523 | 69° F | 88% | 767.1 mmHg | - | - | - | - |
| 1788144323 | 68° F | 93% | 767.1 mmHg | - | - | - | - |
| 1788143123 | 69° F | 90% | 767.2 mmHg | - | - | - | - |
| 1788141922 | 68° F | 97% | 767.2 mmHg | - | - | - | - |
| 1788140722 | 69° F | 94% | 767.1 mmHg | - | - | - | - |
| 1788139522 | 70° F | 91% | 767.2 mmHg | - | - | - | - |
| 1788138322 | 70° F | 94% | 767.2 mmHg | - | - | - | - |
| 1788137122 | 71° F | 90% | 767.3 mmHg | - | - | - | - |
| 1788135922 | 72° F | 89% | 767.2 mmHg | - | - | - | - |
| 1788134722 | 73° F | 88% | 767.1 mmHg | - | - | - | - |
| 1788133522 | 71° F | 95% | 767.2 mmHg | - | - | - | - |
| 1788132322 | 73° F | 89% | 767.2 mmHg | - | - | - | - |
| 1788131122 | 73° F | 88% | 767.2 mmHg | - | - | - | - |
| 1788129922 | 73° F | 88% | 767 mmHg | - | - | - | - |
| 1788128721 | 74° F | 87% | 766.9 mmHg | - | - | - | - |
| 1788127521 | 74° F | 85% | 766.8 mmHg | - | - | - | - |
| 1788126321 | 73° F | 89% | 766.8 mmHg | - | - | - | - |
| 1788125121 | 73° F | 89% | 766.6 mmHg | - | - | - | - |
| 1788123921 | 72° F | 92% | 766.6 mmHg | - | - | - | - |
| 1788122721 | 72° F | 94% | 766.6 mmHg | - | - | - | - |
| 1788121521 | 74° F | 86% | 766.5 mmHg | - | - | - | - |
| 1788120321 | 73° F | 87% | 766.3 mmHg | - | - | - | - |
| 1788119121 | 73° F | 89% | 766.3 mmHg | - | - | - | - |
| 1788117921 | 75° F | 88% | 766 mmHg | - | - | - | - |
* Rain since midnight (hover to see other rain measurements)
** Current wind speed in m/s (hover to see current wind gust speed)